Portada
METAR-TAF:

METAR-TAF

Aeroports :

Jaffrey, Nova Hampshire, Estats Units d'Amèrica

latitud: 42-48-21N, longitud: 072-00-02W, altitud: 317 m

Observació

L'informe es va fer fa 1 hora i 6 minuts, a les 16:52 UTC
Vent 6 kt amb direcció variable
Temperatura 7°C
Humitat 42%
Pressió 1013 hPa
Visibilitat: 16.1 km
Cel clar

METAR: KAFN 241652Z AUTO VRB06KT 10SM CLR 07/M05 A2991 RMK AO2 SLP141 T00671050

Hora: 12:58 (17:58 UTC)


TAF: manca

Observacions i pronòstics meteorològics de més de 4000 aeroports (METAR i TAF).

Les estacions disponibles són els punts grocs i vermells al mapa.

Posi el ratolí al punt desitjat per veure el nom de l'estació.

Feu clic per veure les observacions i els pronòstics meteorològics.

Per canviar el mapa: feu clic els botons verds amb una creu de color negre per apropar; al botó verd amb un guió per allunyar la imatge; o en les fletxes verdes per a mapes adjacents.


METAR-TAF: